return to the intranet
 
HomeHome  CalendarCalendar  FAQFAQ  SearchSearch  MemberlistMemberlist  UsergroupsUsergroups  RegisterRegister  Log inLog in  

Share
 

 [IVAO] A321 SWISS - UUDD

Go down 
AuthorMessage
ETZLINGERA

ETZLINGERA

Posts : 77
Join date : 2017-01-05
Age : 22
Location : Geneva

[IVAO] A321 SWISS - UUDD Empty
PostSubject: [IVAO] A321 SWISS - UUDD   [IVAO] A321 SWISS - UUDD Empty2017-01-08, 00:14

------------------------------
LX1324
LSZH - UUDD
DEP TIME 2015z
ARR TIME 0000z

------------------------------

WX UUDD METAR
072330Z 01003MPS 2800 R32R/P2000 -SN BR FEW003 M26/M29 Q1024 R32R/450294 TEMPO 1500 BR

------------------------------

[IVAO] A321 SWISS - UUDD 5682172017180497354copie

[IVAO] A321 SWISS - UUDD 52001920171805346437copie

[IVAO] A321 SWISS - UUDD 39409320171805332410copie

_________________
Etzlinger Alexandre
Deputy Director
& Web Developper
[IVAO] A321 SWISS - UUDD 20pua9e
Back to top Go down
View user profile
 
[IVAO] A321 SWISS - UUDD
Back to top 
Page 1 of 1
 Similar topics
-
» Swiss Championship 2014
» Super Swiss 8CPU
» Eight-Headed Monsters II 8CPU (9 Round Swiss)
» Eight-Headed Monsters V 8CPU (9 Round Swiss)
» Eight-Headed Monsters IV 8CPU (9 Round Swiss)

Permissions in this forum:You cannot reply to topics in this forum
SWISS virtual :: Swiss Intl. Virtual Airlines :: Flight pictures & videos-
Jump to: